Date String (YYYY-MM-DD hh:mm:ss) UTC,Instrument flags,absolute air pressure of the measurement (hPa),sample flow rate (lpm),inlet stack bypass flow (lpm),air temperature of the measurement (°C),ambient temperature measured by the external sensor (°C),aerosol sample conditioner tube jacket temperature (°C),OPC LED temperature (°C),internal box temperature (°C),relative humidity of the measurement (%),span deviation,mass concentration of particles derived from Lorenz-Mie calculation of OPC scattering (μg/m³),mass concentration of particles derived from Lorenz-Mie calculation of OPC scattering (μg/m³),mass concentration of particles derived from Lorenz-Mie calculation of OPC scattering (μg/m³)
DateTimeUTC,F1_M11,P_M11,Q1_M11,Q2_M11,T1_M11,T2_M11,T3_M11,T4_M11,T5_M11,U1_M11,ZSPAN_M11,X0_M11,X2_M11,X1_M11
2024-02-14 08:00:00,SystemResetWarning,0824.0,5.00,000.00,020.2,019.6,000.0,028.8,022.0,14.3,0000.0,0012.97,0006.08,0005.32
2024-02-14 08:01:00,SystemResetWarning,0824.0,5.00,000.00,020.2,019.6,000.0,028.8,022.0,14.3,0000.0,0012.57,0006.06,0005.34
2024-02-14 08:02:00,SystemResetWarning,0824.0,5.00,000.00,020.2,019.6,000.0,028.8,022.0,14.3,0000.6,0012.71,0006.09,0005.36
2024-02-14 08:03:00,SystemResetWarning,0824.0,4.99,000.00,020.2,019.6,000.0,028.8,022.0,14.3,0000.4,0012.38,0006.08,0005.39
2024-02-14 08:04:00,SystemResetWarning,0823.9,5.00,000.00,020.2,019.5,000.0,028.8,021.9,14.3,0000.0,0012.47,0006.03,0005.39
2024-02-14 08:05:00,SystemResetWarning,0824.0,5.01,000.00,020.1,019.5,000.0,028.8,021.9,14.3,0000.0,0012.42,0006.05,0005.39
2024-02-14 08:06:00,SystemResetWarning,0823.9,5.01,000.00,020.1,019.5,000.0,028.8,021.8,14.3,0000.0,0012.33,0006.03,0005.39
2024-02-14 08:07:00,SystemResetWarning,0824.0,5.00,000.00,020.1,019.4,000.0,028.7,021.8,14.3,0000.0,0012.43,0006.05,0005.40
2024-02-14 08:08:00,SystemResetWarning,0823.8,4.99,000.00,020.0,019.4,000.0,028.7,021.7,14.3,0000.0,0012.39,0006.07,0005.40
2024-02-14 08:09:00,SystemResetWarning,0823.8,5.00,000.00,020.0,019.3,000.0,028.7,021.6,14.4,0000.0,0012.88,0006.08,0005.40
2024-02-14 08:10:00,SystemResetWarning,0823.8,5.00,000.00,020.0,019.3,000.0,028.7,021.5,14.4,0000.5,0012.96,0006.09,0005.41
2024-02-14 08:11:00,SystemResetWarning,0823.8,5.01,000.00,019.9,019.2,000.0,028.6,021.5,14.4,0000.4,0012.49,0006.07,0005.41
2024-02-14 08:12:00,SystemResetWarning,0823.8,5.00,000.00,019.9,019.2,000.0,028.6,021.5,14.5,0000.0,0012.42,0006.10,0005.43
2024-02-14 08:13:00,SystemResetWarning,0823.8,5.01,000.00,019.9,019.1,000.0,028.6,021.5,14.5,0000.0,0012.20,0006.11,0005.43
2024-02-14 08:14:00,SystemResetWarning,0823.8,5.00,000.00,019.8,019.1,000.0,028.5,021.4,14.5,0000.0,0012.01,0006.07,0005.42
2024-02-14 08:15:00,SystemResetWarning,0823.8,5.00,000.00,019.8,019.1,000.0,028.5,021.4,14.6,0000.0,0011.59,0006.08,0005.42
2024-02-14 08:16:00,SystemResetWarning,0823.9,5.00,000.00,019.8,019.0,000.0,028.5,021.4,14.6,0000.0,0011.85,0006.08,0005.42
2024-02-14 08:17:00,SystemResetWarning,0823.8,5.00,000.00,019.7,019.0,000.0,028.5,021.3,14.6,0000.0,0011.69,0006.03,0005.41
2024-02-14 08:18:00,SystemResetWarning,0823.8,5.00,000.00,019.7,019.0,000.0,028.4,021.3,14.6,0000.0,0011.33,0006.01,0005.40
2024-02-14 08:19:00,SystemResetWarning,0823.8,5.00,000.00,019.7,019.0,000.0,028.4,021.3,14.6,0000.0,0011.26,0006.00,0005.38
2024-02-14 08:20:00,SystemResetWarning,0823.8,5.00,000.00,019.6,018.9,000.0,028.4,021.3,14.6,0000.0,0010.23,0005.98,0005.37
2024-02-14 08:21:00,SystemResetWarning,0823.8,5.00,000.00,019.6,018.9,000.0,028.3,021.2,14.7,0000.0,0010.51,0005.99,0005.36
2024-02-14 08:22:00,SystemResetWarning,0823.8,5.00,000.00,019.6,018.9,000.0,028.3,021.2,14.7,0000.0,0010.47,0005.98,0005.35
2024-02-14 08:23:00,SystemResetWarning,0823.8,5.00,000.00,019.6,018.9,000.0,028.3,021.2,14.7,0000.0,0010.44,0005.95,0005.33
2024-02-14 08:24:00,SystemResetWarning,0823.8,5.01,000.00,019.5,018.9,000.0,028.3,021.2,14.7,0000.0,0010.44,0005.94,0005.33
2024-02-14 08:25:00,SystemResetWarning,0823.8,5.00,000.00,019.5,018.9,000.0,028.2,021.2,14.7,0000.0,0010.79,0006.00,0005.34
2024-02-14 08:26:00,SystemResetWarning,0823.8,5.00,000.00,019.5,018.9,000.0,028.2,021.2,14.7,0000.0,0011.09,0006.02,0005.35
2024-02-14 08:27:00,SystemResetWarning,0823.8,5.01,000.00,019.5,018.9,000.0,028.2,021.2,14.7,0000.0,0010.69,0006.00,0005.34
2024-02-14 08:28:00,SystemResetWarning,0823.8,5.00,000.00,019.5,018.9,000.0,028.2,021.3,14.7,0000.0,0011.41,0006.00,0005.35
2024-02-14 08:29:00,SystemResetWarning,0823.9,5.00,000.00,019.5,018.9,000.0,028.2,021.3,14.7,0000.0,0011.60,0006.02,0005.36
2024-02-14 08:30:00,SystemResetWarning,0824.0,5.00,000.00,019.5,019.0,000.0,028.2,021.3,14.7,0000.0,0012.29,0005.99,0005.36
2024-02-14 08:31:00,SystemResetWarning,0824.0,5.00,000.00,019.5,019.0,000.0,028.1,021.3,14.7,0000.0,0012.49,0005.96,0005.34
2024-02-14 08:32:00,SystemResetWarning,0823.9,4.99,000.00,019.5,019.0,000.0,028.1,021.4,14.7,0000.0,0012.16,0005.92,0005.32
2024-02-14 08:33:00,SystemResetWarning,0823.8,5.00,000.00,019.5,019.0,000.0,028.1,021.4,14.7,0000.0,0012.68,0005.91,0005.30
2024-02-14 08:34:00,SystemResetWarning,0823.8,5.01,000.00,019.5,019.0,000.0,028.1,021.4,14.7,0000.0,0012.81,0005.93,0005.28
2024-02-14 08:35:00,SystemResetWarning,0823.7,5.01,000.00,019.5,019.1,000.0,028.1,021.4,14.7,0000.0,0012.88,0005.91,0005.25
2024-02-14 08:36:00,SystemResetWarning,0823.6,5.00,000.00,019.6,019.1,000.0,028.1,021.4,14.7,0000.0,0012.90,0005.88,0005.24
2024-02-14 08:37:00,SystemResetWarning,0823.6,5.00,000.00,019.6,019.1,000.0,028.1,021.4,14.7,0000.0,0012.82,0005.85,0005.21
2024-02-14 08:38:00,SystemResetWarning,0823.8,4.99,000.00,019.6,019.1,000.0,028.1,021.4,14.7,0000.0,0012.91,0005.83,0005.18
2024-02-14 08:39:00,SystemResetWarning,0823.8,4.99,000.00,019.6,019.1,000.0,028.1,021.4,14.8,0000.0,0012.25,0005.81,0005.15
2024-02-14 08:40:00,SystemResetWarning,0823.8,5.01,000.00,019.5,019.0,000.0,028.1,021.3,14.8,0000.0,0012.50,0005.75,0005.12
2024-02-14 08:41:00,SystemResetWarning,0823.8,5.01,000.00,019.5,019.0,000.0,028.1,021.3,14.7,0000.0,0011.51,0005.72,0005.11
2024-02-14 08:42:00,SystemResetWarning,0823.7,5.00,000.00,019.5,019.0,000.0,028.1,021.3,14.7,0000.0,0011.25,0005.72,0005.11
2024-02-14 08:43:00,SystemResetWarning,0823.6,5.01,000.00,019.5,019.0,000.0,028.1,021.3,14.7,0000.0,0011.22,0005.73,0005.13
2024-02-14 08:44:00,SystemResetWarning,0823.6,4.99,000.00,019.5,019.0,000.0,028.1,021.3,14.6,0000.0,0011.08,0005.76,0005.13
2024-02-14 08:45:00,SystemResetWarning,0823.6,4.99,000.00,019.5,019.0,000.0,028.1,021.3,14.6,0000.0,0011.05,0005.73,0005.14
2024-02-14 08:46:00,SystemResetWarning,0823.6,5.01,000.00,019.5,019.0,000.0,028.1,021.3,14.6,0000.0,0010.92,0005.72,0005.15
2024-02-14 08:47:00,SystemResetWarning,0823.6,5.02,000.00,019.5,018.9,000.0,028.1,021.3,14.6,0000.0,0010.83,0005.71,0005.15
2024-02-14 08:48:00,SystemResetWarning,0823.6,4.99,000.00,019.5,018.9,000.0,028.1,021.3,14.6,0000.0,0011.16,0005.71,0005.15
2024-02-14 08:49:00,SystemResetWarning,0823.6,4.99,000.00,019.5,018.9,000.0,028.1,021.3,14.6,0000.0,0011.53,0005.79,0005.17
2024-02-14 08:50:00,SystemResetWarning,0823.7,5.01,000.00,019.5,018.9,000.0,028.1,021.3,14.6,0000.0,0011.99,0005.82,0005.19
2024-02-14 08:51:00,SystemResetWarning,0823.6,5.00,000.00,019.5,018.9,000.0,028.1,021.2,14.6,0000.0,0012.72,0005.87,0005.20
2024-02-14 08:52:00,SystemResetWarning,0823.7,4.98,000.00,019.5,018.9,000.0,028.0,021.2,14.7,0001.4,0013.63,0005.91,0005.20
2024-02-14 08:53:00,SystemResetWarning,0823.8,5.01,000.00,019.4,018.9,000.0,028.0,021.2,14.7,0000.0,0013.78,0005.95,0005.21
2024-02-14 08:54:00,SystemResetWarning,0823.8,5.02,000.00,019.4,018.9,000.0,028.0,021.2,14.7,0000.0,0014.00,0005.92,0005.20
2024-02-14 08:55:00,SystemResetWarning,0824.0,4.99,000.00,019.4,018.9,000.0,028.0,021.2,14.8,0000.0,0013.89,0005.89,0005.19
2024-02-14 08:56:00,SystemResetWarning,0824.0,4.99,000.00,019.4,018.9,000.0,028.0,021.2,14.8,0000.0,0013.44,0005.87,0005.17
2024-02-14 08:57:00,SystemResetWarning,0823.9,4.99,000.00,019.4,018.9,000.0,028.0,021.2,14.7,0000.0,0013.32,0005.84,0005.15
2024-02-14 08:58:00,SystemResetWarning,0823.9,5.00,000.00,019.4,018.9,000.0,028.0,021.3,14.7,0004.2,0013.24,0005.84,0005.16
2024-02-14 08:59:00,SystemResetWarning,0823.8,5.01,000.00,019.4,018.9,000.0,028.0,021.2,14.7,0003.7,0012.65,0005.84,0005.18
